Weather History for Russellville, AR

Change the Weather History Date:

Thursday, November 21, 2013

  Actual Average (KHOT) Record (KHOT)
Temperature  
Mean Temperature 55 °F -  
Max Temperature 57 °F 62 °F 77 °F (1989)
Min Temperature 53 °F 40 °F 23 °F (2000)
Degree Days  
Heating Degree Days 10    
Growing Degree Days 5 (Base 50)    
Moisture  
Dew Point 51 °F    
Average Humidity 84    
Maximum Humidity 100    
Minimum Humidity 47    
Precipitation  
Precipitation 0.00 in - - ()
Sea Level Pressure  
Sea Level Pressure 30.10 in    
Wind  
Wind Speed 2 mph (NNW)    
Max Wind Speed 6 mph    
Max Gust Speed -    
Visibility 6 miles    
Events Rain , Thunderstorm    
Averages and records for this station are not official NWS values.
T = Trace of Precipitation, MM = Missing Value Source: NWS Daily Summary

Daily Weather History Graph

Daily Weather History Graph

Search for Another Location

Airport:

Trip Planner

Search our weather history database for the weather conditions in past years. The results will help you decide how hot, cold, wet, or windy it might be!

Date:

Astronomy

Nov. 21, 2013 Rise Set
Actual Time 6:53 AM CST 5:02 PM CST
Civil Twilight 6:26 AM CST 5:30 PM CST
Nautical Twilight 5:55 AM CST 6:01 PM CST
Astronomical Twilight 5:24 AM CST 6:31 PM CST
Moon 8:39 PM CST (11/21) 10:01 AM CST (11/21)
Length of Visible Light 11h 04m
Length of Day
10h 09m
Waning Gibbous, 85% of the Moon is Illuminated
Nov 21
Waning Gibbous
Nov 25
Last Quarter
Dec 2
New
Dec 9
First Quarter
Dec 17
Full

Hourly Weather History & Observations

Time (CST) Temp. Dew Point Humidity Pressure Visibility Wind Dir Wind Speed Gust Speed Precip Events Conditions
12:53 AM 57.0 °F 37.0 °F 47% 30.06 in 10.0 mi Calm Calm - N/A   Overcast
1:53 AM 55.9 °F 37.0 °F 49% 30.05 in 10.0 mi Calm Calm - N/A   Overcast
2:53 AM 57.0 °F 37.0 °F 47% 30.04 in 10.0 mi Calm Calm - N/A   Overcast
3:53 AM 57.0 °F 37.0 °F 47% 30.03 in 10.0 mi Variable 3.5 mph - N/A   Overcast
4:53 AM 55.9 °F 37.9 °F 51% 30.04 in 10.0 mi Calm Calm - N/A   Overcast
5:53 AM 55.9 °F 37.9 °F 51% 30.04 in 10.0 mi Variable 3.5 mph - N/A   Overcast
6:53 AM 55.9 °F 37.9 °F 51% 30.06 in 10.0 mi Calm Calm - N/A   Overcast
7:53 AM 55.0 °F 41.0 °F 59% 30.07 in 10.0 mi Variable 5.8 mph - 0.00 in   Overcast
8:53 AM 53.1 °F 45.0 °F 74% 30.10 in 10.0 mi Variable 4.6 mph - 0.00 in   Overcast
9:53 AM 53.1 °F 48.0 °F 83% 30.10 in 10.0 mi Variable 3.5 mph - 0.00 in Rain Light Rain
10:19 AM 53.6 °F 48.2 °F 82% 30.13 in 10.0 mi Variable 3.5 mph - 0.00 in Rain Light Rain
10:53 AM 53.1 °F 48.9 °F 86% 30.10 in 7.0 mi Variable 4.6 mph - 0.00 in Rain Light Rain
11:53 AM 53.1 °F 50.0 °F 89% 30.07 in 10.0 mi Variable 5.8 mph - 0.00 in   Overcast
12:53 PM 54.0 °F 51.1 °F 90% 30.06 in 8.0 mi Variable 3.5 mph - N/A   Overcast
1:16 PM 53.6 °F 51.8 °F 94% 30.07 in 8.0 mi Variable 3.5 mph - N/A   Overcast
1:53 PM 55.0 °F 52.0 °F 89% 30.05 in 9.0 mi Variable 4.6 mph - N/A   Overcast
2:39 PM 55.4 °F 51.8 °F 88% 30.06 in 7.0 mi Calm Calm - N/A   Overcast
2:53 PM 55.0 °F 53.1 °F 93% 30.05 in 6.0 mi Variable 3.5 mph - N/A   Overcast
3:16 PM 55.4 °F 53.6 °F 94% 30.07 in 3.0 mi Variable 3.5 mph - N/A   Overcast
3:53 PM 55.9 °F 53.1 °F 90% 30.07 in 6.0 mi East 4.6 mph - N/A   Overcast
4:53 PM 55.9 °F 53.1 °F 90% 30.07 in 5.0 mi Variable 3.5 mph - N/A   Overcast
5:53 PM 55.9 °F 54.0 °F 93% 30.09 in 5.0 mi Calm Calm - N/A   Overcast
6:43 PM 57.2 °F 53.6 °F 88% 30.11 in 6.0 mi Calm Calm - N/A   Overcast
6:53 PM 57.0 °F 54.0 °F 89% 30.10 in 6.0 mi Calm Calm - N/A   Overcast
7:50 PM 57.2 °F 55.4 °F 94% 30.12 in 3.0 mi Calm Calm - N/A   Overcast
7:53 PM 57.0 °F 55.0 °F 93% 30.11 in 3.0 mi Calm Calm - N/A   Overcast
8:02 PM 57.2 °F 53.6 °F 88% 30.12 in 2.5 mi Calm Calm - 0.00 in Rain Light Rain
8:16 PM 55.4 °F 55.4 °F 100% 30.13 in 2.5 mi Calm Calm - 0.00 in Thunderstorm Overcast
8:44 PM 55.4 °F 55.4 °F 100% 30.12 in 2.0 mi Calm Calm - 0.00 in   Overcast
8:51 PM 57.2 °F 55.4 °F 94% 30.13 in 1.5 mi Calm Calm - 0.00 in Rain Rain
8:53 PM 57.0 °F 55.0 °F 93% 30.12 in 1.5 mi Calm Calm - 0.00 in Rain Light Rain
9:14 PM 57.2 °F 55.4 °F 94% 30.14 in 2.5 mi Calm Calm - 0.00 in   Overcast
9:21 PM 57.2 °F 55.4 °F 94% 30.14 in 3.0 mi Calm Calm - 0.00 in   Overcast
9:43 PM 57.2 °F 55.4 °F 94% 30.14 in 2.0 mi Calm Calm - 0.00 in Rain Light Rain
9:53 PM 57.0 °F 55.0 °F 93% 30.12 in 2.5 mi NNE 4.6 mph - 0.00 in Rain Light Rain
9:57 PM 57.2 °F 55.4 °F 94% 30.14 in 3.0 mi Calm Calm - 0.00 in   Overcast
10:14 PM 57.2 °F 55.4 °F 94% 30.14 in 4.0 mi Calm Calm - 0.00 in   Overcast
10:26 PM 57.2 °F 55.4 °F 94% 30.13 in 3.0 mi Calm Calm - 0.00 in   Overcast
10:38 PM 57.2 °F 55.4 °F 94% 30.14 in 3.0 mi Calm Calm - 0.00 in Rain Rain
10:45 PM 57.2 °F 55.4 °F 94% 30.14 in 4.0 mi NNE 3.5 mph - 0.00 in Rain Light Rain
10:53 PM 57.0 °F 55.0 °F 93% 30.13 in 7.0 mi North 4.6 mph - 0.00 in   Overcast
11:18 PM 57.2 °F 55.4 °F 94% 30.17 in 4.0 mi West 5.8 mph - 0.00 in Rain , Thunderstorm Rain
11:22 PM 57.2 °F 55.4 °F 94% 30.18 in 2.5 mi West 4.6 mph - 0.00 in Rain , Thunderstorm Heavy Rain
11:49 PM 57.2 °F 55.4 °F 94% 30.16 in 2.5 mi Calm Calm - N/A Rain , Thunderstorm Heavy Rain
11:53 PM 57.0 °F 55.9 °F 96% 30.16 in 2.5 mi West 4.6 mph - N/A Rain Rain
11:58 PM 57.2 °F 55.4 °F 94% 30.17 in 3.0 mi NW 4.6 mph - N/A Rain Rain